Home > Weather > Bodø > Past weeks

Flag for Norway Past Weather in Bodø, Norway — Yesterday and Last 2 Weeks

Now
48 °F

Sunny.


Feels Like: 44 °F
Forecast: 51 / 55 °F
Wind: 10 mph from North

Location: Bodo Vi

Current Time: Jun 25, 2016 at 12:13:23 AM

Latest Report: Jun 24, 2016 at 11:50 PM


Visibility: 10 mi

Pressure: 30.01 "Hg

Humidity: 87%

Dew Point: 45 °F

Location of BodøLocation

Past Weather in Bodø — Graph

°F

Bodø Temperature Yesterday

Maximum temperature yesterday: 55 °F (at 4:50 PM)
Minimum temperature yesterday: 48 °F (at 8:50 AM)
Average temperature yesterday: 52 °F

High & Low Weather Summary for the Past Weeks

 TemperatureHumidityPressure
High68 °F (Jun 23, 5:50 PM)100% (Jun 18, 5:20 PM)30.12 "Hg (Jun 18, 5:20 PM)
Low39 °F (Jun 15, 2:50 AM)49% (Jun 23, 5:50 PM)29.65 "Hg (Jun 21, 6:50 AM)
Average50 °F80%29.88 "Hg
* Reported Jun 9 10:20 PM — Jun 24 10:50 PM, Bodø, Weather by CustomWeather, © 2016

Note: Actual official high and low records may vary slightly from our data, if they occured in-between our weather recording intervals... More about our weather records

Advertising

Bodø Weather History for the Previous 24 Hours

Scroll right to see more
 ConditionsComfort  
Time TempWeatherWind HumidityBarometerVisibility
10:50 PM
Fri, Jun 24
50 °FScattered clouds.12 mph82%30.01 "HgN/A
10:20 PM50 °FPassing clouds.12 mph82%30.01 "HgN/A
9:50 PM52 °FPassing clouds.10 mph77%30.01 "HgN/A
9:20 PM54 °FPassing clouds.8 mph77%30.01 "HgN/A
8:50 PM54 °FPassing clouds.6 mph77%30.04 "HgN/A
8:20 PM54 °FPassing clouds.8 mph77%30.04 "HgN/A
7:50 PM54 °FPassing clouds.6 mph77%30.04 "HgN/A
7:20 PM54 °FPassing clouds.7 mph77%30.04 "HgN/A
6:50 PM54 °FPassing clouds.6 mph72%30.07 "HgN/A
6:20 PM54 °FPassing clouds.6 mph77%30.07 "HgN/A
5:50 PM54 °FScattered clouds.7 mph77%30.07 "HgN/A
5:20 PM54 °FScattered clouds.6 mph72%30.07 "HgN/A
4:50 PM55 °FScattered clouds.6 mph72%30.07 "HgN/A
4:20 PM54 °FScattered clouds.7 mph82%30.09 "HgN/A
3:50 PM54 °FScattered clouds.6 mph82%30.09 "HgN/A
3:20 PM54 °FScattered clouds.7 mph82%30.09 "HgN/A
2:50 PM54 °FPartly sunny.6 mph82%30.09 "HgN/A
2:20 PM54 °FPartly sunny.7 mph82%30.09 "HgN/A
1:50 PM52 °FBroken clouds.7 mph82%30.09 "HgN/A
1:20 PM52 °FPartly sunny.7 mph82%30.09 "HgN/A
12:50 PM50 °FPartly sunny.7 mph94%30.09 "HgN/A
12:20 PM50 °FPartly sunny.7 mph94%30.12 "HgN/A
11:50 AM50 °FPartly sunny.8 mph94%30.12 "HgN/A
11:20 AM50 °FPartly sunny.10 mph94%30.12 "HgN/A
10:50 AM50 °FPartly sunny.9 mph100%30.12 "HgN/A
10:20 AM50 °FPartly sunny.8 mph94%30.09 "HgN/A
9:50 AM48 °FPartly sunny.8 mph100%30.09 "HgN/A
9:20 AM48 °FPartly sunny.9 mph100%30.09 "HgN/A
8:50 AM48 °FPartly sunny.9 mph100%30.09 "HgN/A
8:20 AM50 °FBroken clouds.10 mph100%30.09 "HgN/A
7:50 AM50 °FLight rain. Partly sunny.9 mph100%30.09 "Hg4 mi
7:20 AM50 °FLight rain. Partly sunny.10 mph100%30.09 "Hg4 mi
6:50 AM50 °FDrizzle. Partly sunny.16 mph100%30.07 "Hg2 mi
6:20 AM50 °FDrizzle. Partly sunny.13 mph100%30.07 "Hg2 mi
5:50 AM52 °FDrizzle. Partly sunny.12 mph100%30.07 "Hg2 mi
5:20 AM52 °FDrizzle. Broken clouds.5 mph94%30.07 "Hg5 mi
4:50 AM52 °FDrizzle. Partly sunny.5 mph100%30.07 "HgN/A
3:50 AM52 °FScattered showers. Broken clouds.10 mph100%30.07 "HgN/A
2:50 AM52 °FSprinkles. Broken clouds.9 mph94%30.07 "HgN/A
1:50 AM52 °FSprinkles. Broken clouds.9 mph94%30.07 "HgN/A
12:50 AM52 °FPartly sunny.8 mph94%30.07 "HgN/A
Weather by CustomWeather, © 2016

See weather overviewHow to use our weather pages